Total_Precipitation_Accumulation
0.01 0.02 0.02 0.02 0.03 0.04 0.07 0.16 0.22 0.23 0.29 0.31 0.40 0.49 0.80 1.02 1.11 1.24 1.40 1.59 1.80 1.99 2.05 2.21 2.51 2.73 2.87 3.02 3.24 3.51 3.92 4.27 4.36 4.18 4.10 3.99 3.67 3.36 3.03 2.76 2.72 2.85 2.77 2.83
0.02 0.03 0.02 0.02 0.02 0.05 0.08 0.17 0.24 0.27 0.31 0.31 0.45 0.56 0.81 1.21 1.34 1.30 1.35 1.38 1.46 1.91 2.11 2.30 2.54 2.68 2.68 2.86 3.15 3.54 3.96 4.28 4.20 4.29 4.47 4.38 4.15 3.48 3.10 2.92 2.84 2.77 2.72 2.72
0.03 0.03 0.02 0.03 0.04 0.07 0.10 0.15 0.21 0.27 0.37 0.34 0.45 0.82 1.02 1.32 1.46 1.33 1.29 1.31 1.27 1.47 1.77 1.91 2.07 2.26 2.50 2.91 3.32 3.59 3.88 4.03 4.06 4.23 4.35 4.05 3.83 3.33 3.16 3.15 2.97 2.84 2.85 2.86
0.03 0.03 0.03 0.05 0.06 0.08 0.12 0.11 0.13 0.20 0.34 0.48 0.56 1.12 1.42 1.62 1.52 1.26 1.28 1.34 1.44 1.56 1.64 1.75 1.81 2.11 2.47 2.86 3.42 3.82 3.84 3.91 3.78 3.89 3.97 3.78 3.41 3.12 3.01 3.02 2.79 2.71 2.65 2.65
0.06 0.04 0.04 0.05 0.06 0.06 0.09 0.08 0.10 0.17 0.27 0.44 0.61 1.00 1.46 1.53 1.43 1.20 1.12 1.31 1.52 1.51 1.56 1.80 1.76 1.94 2.19 2.59 2.99 3.39 3.72 3.79 3.60 3.52 3.54 3.64 3.43 3.13 2.92 2.82 2.71 2.66 2.64 2.46
0.09 0.07 0.06 0.05 0.06 0.06 0.07 0.09 0.15 0.26 0.43 0.74 0.60 0.73 1.16 1.40 1.31 1.09 1.12 1.24 1.39 1.56 1.57 1.73 1.99 2.02 2.12 2.40 2.75 3.02 3.26 3.25 3.17 3.10 3.11 3.19 3.22 3.16 2.89 2.67 2.67 2.65 2.53 2.36
0.17 0.17 0.12 0.09 0.08 0.07 0.09 0.18 0.51 0.84 1.14 0.99 0.63 0.75 1.13 1.10 0.94 0.85 0.92 1.17 1.42 1.71 1.71 1.75 1.93 2.00 2.07 2.21 2.37 2.51 2.61 2.65 2.61 2.63 2.58 2.57 2.66 2.72 2.55 2.46 2.49 2.47 2.36 2.25
0.25 0.24 0.17 0.15 0.12 0.11 0.11 0.22 0.58 0.77 0.91 0.88 0.82 1.05 1.14 0.90 0.77 0.77 0.85 1.03 1.30 1.47 1.51 1.60 1.69 1.60 1.61 1.71 1.83 1.98 2.09 2.10 2.04 2.10 2.16 2.19 2.37 2.35 2.30 2.39 2.32 2.32 2.25 2.21
0.14 0.16 0.15 0.15 0.16 0.15 0.20 0.26 0.27 0.45 0.55 0.91 1.10 1.24 1.15 0.84 0.95 0.93 1.01 1.07 1.12 1.17 1.20 1.19 1.22 1.27 1.39 1.44 1.48 1.57 1.74 1.76 1.67 1.71 1.86 1.93 1.99 2.06 2.11 2.17 2.11 2.00 1.99 1.87
0.08 0.11 0.13 0.11 0.12 0.15 0.22 0.34 0.47 0.68 0.88 1.05 1.14 1.43 1.62 1.44 1.36 1.23 1.33 1.55 1.30 1.05 1.06 1.08 1.05 1.09 1.12 1.14 1.25 1.42 1.56 1.70 1.70 1.64 1.66 1.60 1.68 1.76 1.91 1.95 1.88 1.88 1.92 1.86
0.08 0.11 0.14 0.15 0.15 0.20 0.33 0.41 0.51 0.65 0.75 0.99 1.28 1.46 1.28 1.45 1.42 1.35 1.32 1.37 1.25 0.93 0.81 0.89 0.87 0.91 0.96 1.01 1.10 1.25 1.54 1.70 1.64 1.48 1.48 1.52 1.50 1.58 1.71 1.75 1.70 1.75 1.81 1.90
0.10 0.12 0.16 0.20 0.19 0.19 0.28 0.42 0.52 0.69 0.77 0.86 1.09 1.30 0.92 1.06 1.04 0.99 1.04 0.94 0.85 0.78 0.63 0.75 0.80 0.77 0.80 0.85 0.93 1.08 1.29 1.44 1.44 1.40 1.38 1.48 1.57 1.57 1.52 1.50 1.50 1.52 1.55 1.58
0.13 0.17 0.28 0.47 0.45 0.29 0.26 0.29 0.36 0.45 0.58 0.67 0.96 1.22 0.86 0.79 0.85 0.85 0.83 0.84 0.70 0.75 0.70 0.69 0.78 0.78 0.73 0.72 0.83 1.02 1.06 1.23 1.38 1.37 1.33 1.45 1.46 1.42 1.45 1.55 1.56 1.50 1.50 1.50
0.14 0.15 0.24 0.49 0.57 0.44 0.34 0.34 0.35 0.38 0.52 0.55 0.63 0.92 0.93 0.90 0.89 0.92 0.83 0.69 0.61 0.67 0.75 0.71 0.70 0.70 0.61 0.59 0.67 0.84 0.91 1.02 1.16 1.28 1.38 1.52 1.54 1.54 1.60 1.62 1.63 1.58 1.49 1.53
0.13 0.14 0.16 0.22 0.30 0.33 0.31 0.30 0.33 0.35 0.39 0.50 0.57 0.72 0.87 0.88 0.90 0.96 0.85 0.71 0.70 0.61 0.64 0.68 0.64 0.55 0.53 0.54 0.58 0.73 0.84 0.92 1.03 1.23 1.40 1.49 1.53 1.54 1.56 1.53 1.59 1.60 1.50 1.47
0.18 0.19 0.21 0.28 0.32 0.35 0.34 0.34 0.30 0.28 0.26 0.30 0.48 0.71 0.70 0.69 0.75 0.85 0.83 0.87 0.85 0.74 0.58 0.55 0.58 0.58 0.58 0.50 0.49 0.55 0.69 0.83 0.94 1.11 1.23 1.28 1.39 1.49 1.45 1.42 1.46 1.47 1.49 1.53
0.24 0.28 0.33 0.38 0.42 0.50 0.54 0.43 0.41 0.40 0.35 0.38 0.60 0.74 0.60 0.60 0.65 0.68 0.67 0.73 0.77 0.75 0.80 0.77 0.69 0.70 0.61 0.50 0.51 0.53 0.56 0.72 0.91 1.04 1.09 1.18 1.32 1.42 1.41 1.35 1.43 1.50 1.51 1.49
0.29 0.36 0.39 0.41 0.57 0.81 0.62 0.39 0.33 0.33 0.36 0.35 0.45 0.51 0.50 0.53 0.53 0.58 0.63 0.60 0.59 0.52 0.58 0.73 0.78 0.80 0.76 0.66 0.65 0.66 0.64 0.71 0.86 1.03 1.14 1.20 1.34 1.38 1.40 1.39 1.36 1.40 1.40 1.39
0.27 0.41 0.48 0.52 0.63 0.66 0.56 0.45 0.43 0.45 0.46 0.33 0.38 0.44 0.44 0.51 0.57 0.65 0.54 0.45 0.55 0.51 0.58 0.65 0.69 0.78 0.93 0.94 0.87 0.86 0.87 0.84 0.88 1.03 1.16 1.29 1.44 1.47 1.46 1.47 1.44 1.45 1.45 1.39
0.30 0.39 0.52 0.54 0.77 0.84 0.67 0.50 0.52 0.59 0.84 0.56 0.50 0.54 0.55 0.53 0.77 0.84 0.53 0.46 0.67 0.59 0.57 0.62 0.65 0.67 0.81 0.87 0.83 0.85 0.92 0.99 1.01 1.09 1.20 1.34 1.44 1.55 1.52 1.57 1.60 1.56 1.49 1.42
0.58 0.60 0.61 0.60 0.80 0.89 0.62 0.49 0.57 1.00 1.15 0.68 0.60 0.63 0.68 0.69 0.70 0.65 0.52 0.55 0.63 0.57 0.55 0.53 0.58 0.76 0.80 0.79 0.83 0.94 0.97 1.04 1.09 1.21 1.28 1.42 1.51 1.55 1.55 1.62 1.66 1.62 1.56 1.58
0.82 0.81 0.76 0.81 1.04 1.10 0.64 0.59 0.85 0.97 0.71 0.64 0.61 0.57 0.62 0.63 0.58 0.48 0.46 0.49 0.51 0.56 0.57 0.65 0.76 0.85 0.86 0.89 1.01 1.14 1.20 1.15 1.23 1.33 1.36 1.47 1.58 1.44 1.44 1.67 1.74 1.72 1.70 1.69
0.88 0.91 0.94 1.01 1.09 0.93 0.78 0.81 0.90 0.78 0.76 0.66 0.57 0.56 0.53 0.58 0.57 0.51 0.49 0.45 0.47 0.53 0.57 0.67 0.81 0.88 0.91 0.96 1.11 1.33 1.33 1.27 1.29 1.40 1.46 1.50 1.56 1.65 1.74 1.79 1.83 1.79 1.73 1.71
0.92 0.82 0.98 1.11 1.09 0.98 0.91 0.89 0.87 0.79 0.73 0.63 0.55 0.57 0.56 0.62 0.67 0.60 0.56 0.55 0.52 0.53 0.56 0.62 0.78 0.85 0.98 1.08 1.22 1.47 1.50 1.46 1.47 1.55 1.63 1.65 1.65 1.68 1.82 1.98 1.97 1.87 1.73 1.74
1.01 0.98 1.13 1.29 1.23 1.09 0.96 0.82 0.74 0.67 0.62 0.58 0.55 0.57 0.61 0.65 0.70 0.66 0.69 0.68 0.62 0.61 0.61 0.68 0.85 1.00 1.06 1.10 1.17 1.34 1.51 1.64 1.71 1.73 1.72 1.76 1.79 1.82 1.87 1.86 1.81 1.80 1.73 1.64
0.93 1.07 1.34 1.48 1.19 1.05 0.99 0.81 0.77 0.68 0.61 0.60 0.60 0.59 0.66 0.64 0.65 0.64 0.67 0.73 0.70 0.74 0.82 0.82 0.86 1.00 1.07 1.12 1.21 1.33 1.55 1.82 2.02 1.98 1.88 1.88 1.89 1.90 1.87 1.88 1.68 1.49 1.43 1.37